Voltar ao catálogo

METEOR 2-5 DEB

AtivoPO
NORAD 45507·DEBRIS·🇷🇺 Russia

Lançado Oct 31, 1979 de Plesetsk Cosmodrome

Loading…

Próximas Passagens (próximas 24 horas)

TLE

AtualizadoSource: Space-Track

Época: Sep 12, 2026, 16:59 UTC

1 45507U 79095CP  26255.70779680  .00002645  00000-0  86536-3 0  9993
2 45507  81.1941  48.8375 0010001 109.0454 251.1816 14.38261517609734

Acompanhe METEOR 2-5 DEB em tempo real com AllMySat

Download on the App Store